Location: Newark
(42.9858°N, 0.6717°E)
Time: 22:04:24
(UTC+00:00)

S-56A Canister/Altair - Pass Details

Date: 23 November 2019
Orbit: 633 x 2499 km, 38.9° (Epoch: 07 December)

Event Time Altitude Azimuth Distance (km) Brightness Sun altitude
Rises 19:21:10 0° 275° (W) 4,782 12.7 -31.4°
Reaches altitude 10° 19:24:55 10° 271° (W) 3,485 11.7 -32.0°
Enters shadow 19:32:33 51° 208° (SSW) 1,278 8.6 -33.4°
Maximum altitude 19:32:51 52° 199° (SSW) 1,256 - -33.5°
Drops below altitude 10° 19:38:15 10° 124° (ESE) 2,394 - -34.5°
Sets 19:40:25 0° 118° (ESE) 3,183 - -34.9°
